{"data":{"norad_id":61013,"intl_designator":"2024-159C","name":"GEESAT-3 03","alt_names":[],"object_type":"PAYLOAD","status":"ACTIVE","operator":null,"country":"PRC","launch_date":"2024-09-05","launch_site_code":"TAISC","launch_vehicle":null,"mission":null,"orbit_class":"UNKNOWN","rcs_meters":null,"size_class":null,"mass_kg":null,"dimensions":null,"purposes":[],"wikipedia_slug":null,"has_3d_model":false,"image_url":null,"decayed_at":null,"tle_current":{"epoch":"2026-05-25T04:41:59.851104Z","epoch_age_seconds":61650,"freshness":"FRESH","line1":"1 61013U 24159C   26145.19583161  .00001407  00000+0  19350-3 0  9996","line2":"2 61013  49.9923 188.7034 0005343  35.2530 324.8761 14.84151665 93423","mean_motion":14.84151665,"eccentricity":0.0005343,"inclination_deg":49.9923,"raan_deg":188.7034,"arg_perigee_deg":35.253,"mean_anomaly_deg":324.8761,"bstar":0.0001935,"rev_number":9342,"period_min":97.025124450472,"perigee_km":612.51280324401,"apogee_km":619.9870050898,"semimajor_km":6994.3869041669,"source":"CELESTRAK","updated_at":"2026-05-25T13:38:02.276346Z"}}}